[[{"header":{"parameterUnit":"m.s-1","parameterCategory":1,"la1":30.2991,"la2":30.254,"lo1":-89.0895,"lo2":-89.0444,"dy":0.0017,"dx":0.0017,"nx":28,"ny":28,"refTime":"2025-02-11T03:00:00:Z","depth":0,"parameterNumber":2,"parameterNumberName":"U-component_of_WINDS"},"data":[0,0,0,0,0,0,0,0,0,0,0,0,0,0,0,0,0,0,0,0,0,0,0,0,0,0,0,0,0,0,0,0,0,0,0,0,0,0,0,0,0,0,0,0,0,0,0,0,0,0,0,0,0,0,0,0,0,0,-2.4066,-2.4066,0,-2.4088,-2.4088,-2.4088,-2.403,-2.4028,-2.4027,-2.4025,-2.4049,-2.4051,-2.4053,0,0,0,0,0,0,0,0,0,0,0,0,0,-2.3975,-2.3977,-2.4066,-2.4066,-2.4066,-2.4088,-2.4088,-2.4088,-2.403,-2.4028,-2.4026,-2.4024,-2.4048,-2.4051,-2.4054,0,0,0,0,0,0,0,0,0,0,0,0,0,-2.4007,-2.3977,-2.4066,-2.404,-2.4038,-2.4088,-2.4088,-2.4088,-2.4031,-2.4028,-2.4025,-2.4023,-2.4047,-2.405,-2.4054,-2.413,0,0,-2.4065,-2.4066,0,0,0,0,0,0,0,0,-2.4006,-2.4011,-2.4043,-2.4042,-2.4039,-2.4053,-2.4065,-2.4102,-2.4032,-2.4034,-2.4025,-2.4022,-2.4053,-2.4055,-2.4066,-2.4131,-2.4132,-2.4065,-2.4067,-2.4069,-2.407,0,0,0,0,0,0,0,-2.4003,-2.401,-2.4074,-2.4044,-2.4042,-2.4028,-2.4029,-2.4072,-2.4058,-2.4033,-2.4029,-2.4032,-2.4051,-2.4062,-2.4066,-2.4132,-2.4065,-2.4068,-2.407,-2.4071,-2.4262,-2.4264,0,0,0,0,0,0,-2.4004,-2.4008,-2.4074,-2.4075,-2.4015,-2.4032,-2.4033,-2.4052,-2.4057,-2.4056,-2.4035,-2.403,-2.4058,-2.4062,-2.4066,-2.4155,-2.4068,-2.4072,-2.4074,-2.4259,-2.4262,-2.4265,0,0,0,0,0,0,-2.4003,-2.4011,-2.4073,-2.404,-2.4047,-2.4036,-2.4057,-2.4054,-2.4065,-2.4059,-2.4056,-2.4049,-2.4056,-2.4061,-2.4114,-2.4155,-2.4073,-2.4077,-2.4255,-2.426,-2.4264,-2.4334,0,0,0,0,0,0,-2.4,-2.401,-2.4039,-2.4041,-2.4049,-2.412,-2.406,-2.4056,-2.4071,-2.4064,-2.4071,-2.407,-2.4054,-2.411,-2.4118,-2.4159,-2.4079,-2.4251,-2.4257,-2.4262,-2.4328,-2.434,-2.4351,0,0,0,0,0,-2.3997,-2.4058,-2.404,-2.4049,-2.4084,-2.4123,-2.4127,-2.4108,-2.4074,-2.4103,-2.4099,-2.4069,-2.415,-2.4116,-2.4124,-2.4167,-2.4249,-2.4256,-2.4262,-2.4323,-2.4338,-2.4351,0,0,0,0,0,0,-2.406,-2.4058,-2.4038,-2.4102,-2.4113,-2.4113,-2.4148,-2.4124,-2.4145,-2.4138,-2.4114,-2.4116,-2.4174,-2.4176,-2.4137,-2.4241,-2.4194,-2.4202,-2.4237,-2.4251,-2.4262,-2.426,-2.4082,0,0,0,0,0,-2.4082,-2.4113,-2.4109,-2.4165,-2.4172,-2.4159,-2.4175,-2.4159,-2.417,-2.4175,-2.4174,-2.4186,-2.4214,-2.4233,-2.4258,-2.4329,-2.4329,-2.4362,-2.4374,-2.4383,-2.4391,-2.4428,-2.4442,-2.4287,-2.4287,-2.4287,0,0,-2.4126,-2.4128,-2.4149,-2.4178,-2.4185,-2.4218,-2.4164,-2.4201,-2.4225,-2.418,-2.423,-2.4231,-2.4242,-2.4304,-2.4332,-2.4308,-2.4434,-2.4392,-2.4399,-2.4402,-2.4436,-2.4451,-2.4464,-2.4292,-2.4291,-2.429,0,0,-2.4223,-2.4228,-2.4275,-2.4284,-2.4294,-2.4286,-2.4297,-2.4301,-2.43,-2.4349,-2.4317,-2.4346,-2.4394,-2.4404,-2.4415,-2.4518,-2.4491,-2.4527,-2.4586,-2.4622,-2.4634,-2.4645,-2.4681,-2.4694,-2.4534,-2.4535,-2.4535,0,-2.4276,-2.4324,-2.4303,-2.4342,-2.4356,-2.4317,-2.4365,-2.4374,-2.4393,-2.4404,-2.4377,-2.4437,-2.4442,-2.4506,-2.4531,-2.4542,-2.4554,-2.4525,-2.4634,-2.4645,-2.4655,-2.4688,-2.4702,-2.4539,-2.4538,-2.4538,-2.4538,0,-2.4389,-2.4423,-2.446,-2.4479,-2.4497,-2.454,-2.4526,-2.4547,-2.453,-2.4525,-2.4576,-2.4581,-2.4607,-2.4621,-2.4605,-2.4683,-2.4668,-2.4638,-2.459,-2.4674,-2.4705,-2.4718,-2.4545,-2.4543,-2.4542,-2.4541,0,0,-2.4525,-2.4532,-2.4546,-2.4554,-2.4564,-2.459,-2.4632,-2.4657,-2.4675,-2.469,-2.4725,-2.4767,-2.474,-2.4753,-2.4738,-2.4771,-2.4851,-2.4737,-2.4737,-2.4757,-2.4935,-2.4956,-2.4972,-2.4834,-2.4836,-2.4838,-2.4934,0,-2.4619,-2.4691,-2.4674,-2.4745,-2.4776,-2.474,-2.4777,-2.4788,-2.4784,-2.481,-2.4807,-2.4837,-2.4799,-2.4807,-2.4837,-2.4834,-2.4886,-2.4827,-2.4865,-2.4867,-2.4861,-2.4988,-2.501,-2.51,-2.4946,-2.4948,-2.495,0,-2.4739,-2.4758,-2.4832,-2.4838,-2.485,-2.4883,-2.4905,-2.493,-2.4942,-2.4937,-2.4952,-2.4931,-2.4973,-2.4926,-2.4984,-2.4945,-2.4959,-2.4961,-2.4964,-2.4965,-2.4912,-2.4991,-2.5129,-2.5142,-2.4969,-2.4967,-2.4966,0,-2.4829,-2.4874,-2.4924,-2.4932,-2.494,-2.4964,-2.4968,-2.4977,-2.4993,-2.5013,-2.5023,-2.5047,-2.506,-2.508,-2.5066,-2.5033,-2.5126,-2.5078,-2.5123,-2.5123,-2.5142,-2.5141,-2.5282,-2.5155,-2.5155,-2.5154,-2.5154,0,-2.4936,-2.4982,-2.4964,-2.4995,-2.5046,-2.5027,-2.5078,-2.5078,-2.5087,-2.5117,-2.5089,-2.5118,-2.5099,-2.5127,-2.5117,-2.5166,-2.5172,-2.5169,-2.5166,-2.5171,-2.5171,-2.5179,-2.5172,-2.5158,-2.5157,-2.5157,-2.5156,0,-2.5044,-2.5034,-2.5086,-2.5089,-2.5091,-2.5129,-2.5131,-2.516,-2.5155,-2.5194,-2.5202,-2.5194,-2.5226,-2.5215,-2.5248,-2.5241,-2.5303,-2.5293,-2.5299,-2.5296,-2.5341,-2.5336,-2.5491,-2.5509,-2.5372,-2.5373,-2.5374,0,-2.5111,-2.5146,-2.5154,-2.5172,-2.5178,-2.5208,-2.5224,-2.5207,-2.5226,-2.5242,-2.5269,-2.5298,-2.5319,-2.5371,-2.5369,-2.5395,-2.5383,-2.5436,-2.5387,-2.5391,-2.5382,-2.5379,-2.5382,-2.5445,-2.5446,-2.5448,-2.5449,0,-2.5232,-2.5226,-2.525,-2.5274,-2.5294,-2.5312,-2.5327,-2.5344,-2.5328,-2.535,-2.5381,-2.5399,-2.5433,-2.5462,-2.5485,-2.549,-2.5467,-2.5465,-2.5476,-2.548,-2.5482,-2.548,-2.5324,-2.546,-2.5459,-2.5458,-2.5458,-2.5457,-2.5321,-2.535,-2.536,-2.5389,-2.5398,-2.5413,-2.544,-2.5439,-2.5465,-2.5491,-2.548,-2.5517,-2.5528,-2.5557,-2.5565,-2.5593,-2.5573,-2.559,-2.5594,-2.5598,-2.5603,-2.548,-2.5598,-2.5598,-2.5597,-2.5597,-2.5597,0,-2.5439,-2.5444,-2.5471,-2.5493,-2.5515,-2.5492,-2.5508,-2.5528,-2.5561,-2.5573,-2.5596,-2.5632,-2.566,-2.5661,-2.5687,-2.571,-2.57,-2.5717,-2.5714,-2.5716,-2.562,-2.5607,-2.5725,-2.5725,-2.5725,-2.5725,-2.5725,-2.5725,-2.5503,-2.5551,-2.5546,-2.5599,-2.5604,-2.5639,-2.565,-2.5664,-2.5673,-2.5715,-2.5738,-2.5739,-2.5746,-2.5773,-2.5798,-2.5798,-2.5808,-2.5829,-2.5825,-2.5735,-2.5722,-2.571,-2.5697,-2.5832,-2.5832,-2.5917,-2.5918,-2.5918]},{"header":{"parameterUnit":"m.s-1","parameterCategory":1,"la1":30.2991,"la2":30.254,"lo1":-89.0895,"lo2":-89.0444,"dy":0.0017,"dx":0.0017,"nx":28,"ny":28,"refTime":"2025-02-11T03:00:00:Z","depth":0,"parameterNumber":3,"parameterNumberName":"V-component_of_WINDS"},"data":[0,0,0,0,0,0,0,0,0,0,0,0,0,0,0,0,0,0,0,0,0,0,0,0,0,0,0,0,0,0,0,0,0,0,0,0,0,0,0,0,0,0,0,0,0,0,0,0,0,0,0,0,0,0,0,0,0,0,-0.3036,-0.3036,0,-0.2972,-0.2971,-0.297,-0.294,-0.294,-0.294,-0.294,-0.2872,-0.2871,-0.2869,0,0,0,0,0,0,0,0,0,0,0,0,0,-0.3131,-0.3129,-0.3037,-0.3036,-0.3035,-0.2972,-0.2971,-0.297,-0.294,-0.294,-0.294,-0.294,-0.2873,-0.2871,-0.2869,0,0,0,0,0,0,0,0,0,0,0,0,0,-0.308,-0.3129,-0.3037,-0.3012,-0.3009,-0.2972,-0.2971,-0.297,-0.294,-0.294,-0.294,-0.294,-0.2874,-0.2871,-0.2868,-0.285,0,0,-0.286,-0.2859,0,0,0,0,0,0,0,0,-0.3083,-0.3077,-0.3017,-0.3014,-0.3011,-0.2964,-0.2979,-0.2929,-0.294,-0.2966,-0.294,-0.294,-0.2903,-0.2898,-0.2885,-0.2847,-0.2844,-0.286,-0.2858,-0.2857,-0.2856,0,0,0,0,0,0,0,-0.3087,-0.3079,-0.3011,-0.3016,-0.3012,-0.3003,-0.2996,-0.297,-0.2935,-0.2964,-0.2962,-0.2954,-0.2901,-0.2888,-0.2883,-0.2843,-0.286,-0.2857,-0.2856,-0.2854,-0.2782,-0.2782,0,0,0,0,0,0,-0.3094,-0.3083,-0.3013,-0.3009,-0.3048,-0.3002,-0.2994,-0.2979,-0.2935,-0.2929,-0.2954,-0.2953,-0.2893,-0.2887,-0.2881,-0.2854,-0.2857,-0.2854,-0.2853,-0.2782,-0.2782,-0.2782,0,0,0,0,0,0,-0.3097,-0.3089,-0.3015,-0.3045,-0.3035,-0.3,-0.2984,-0.2978,-0.2964,-0.2928,-0.2921,-0.2948,-0.2893,-0.2885,-0.2857,-0.2852,-0.2853,-0.285,-0.2783,-0.2782,-0.2782,-0.2802,0,0,0,0,0,0,-0.3099,-0.309,-0.3083,-0.3045,-0.3034,-0.2994,-0.2983,-0.2976,-0.296,-0.2958,-0.292,-0.2914,-0.2892,-0.2861,-0.2854,-0.2848,-0.2848,-0.2783,-0.2782,-0.2782,-0.2802,-0.2803,-0.2803,0,0,0,0,0,-0.3103,-0.3092,-0.3083,-0.3075,-0.3025,-0.2994,-0.2987,-0.2963,-0.296,-0.2952,-0.2928,-0.2915,-0.2853,-0.2859,-0.2851,-0.2843,-0.2783,-0.2783,-0.2782,-0.2802,-0.2803,-0.2803,0,0,0,0,0,0,-0.3131,-0.3087,-0.3076,-0.3053,-0.3027,-0.2989,-0.2979,-0.2965,-0.2939,-0.2939,-0.2909,-0.2901,-0.2875,-0.2856,-0.2863,-0.2821,-0.2817,-0.2815,-0.2835,-0.2835,-0.2836,-0.2841,-0.2846,0,0,0,0,0,-0.3134,-0.3113,-0.3075,-0.3058,-0.3046,-0.3014,-0.3,-0.2983,-0.2955,-0.2944,-0.2918,-0.2891,-0.2865,-0.2849,-0.2824,-0.2799,-0.2789,-0.2789,-0.279,-0.2791,-0.2789,-0.2772,-0.2771,-0.278,-0.278,-0.278,0,0,-0.3141,-0.3114,-0.3103,-0.3063,-0.3041,-0.3019,-0.3006,-0.2983,-0.2966,-0.2941,-0.2913,-0.2892,-0.286,-0.2833,-0.282,-0.2816,-0.2784,-0.279,-0.2791,-0.2789,-0.2771,-0.277,-0.277,-0.2779,-0.2779,-0.2779,0,0,-0.3141,-0.312,-0.3102,-0.308,-0.3047,-0.3026,-0.3021,-0.2984,-0.297,-0.2941,-0.2921,-0.2899,-0.2856,-0.2833,-0.2816,-0.2804,-0.279,-0.2796,-0.28,-0.2783,-0.2783,-0.2782,-0.2776,-0.2775,-0.2795,-0.2795,-0.2795,0,-0.3154,-0.3121,-0.3095,-0.3072,-0.3055,-0.303,-0.3011,-0.299,-0.2951,-0.2938,-0.2935,-0.2879,-0.2855,-0.2821,-0.2818,-0.2805,-0.2798,-0.2801,-0.2785,-0.2784,-0.2783,-0.2777,-0.2775,-0.2796,-0.2796,-0.2796,-0.2796,0,-0.3136,-0.3113,-0.3103,-0.3064,-0.3045,-0.3024,-0.2994,-0.2977,-0.2961,-0.294,-0.2909,-0.288,-0.2847,-0.2837,-0.2822,-0.28,-0.2799,-0.2791,-0.2786,-0.2783,-0.2777,-0.2775,-0.2797,-0.2797,-0.2797,-0.2796,0,0,-0.3155,-0.31,-0.3097,-0.3078,-0.3038,-0.3019,-0.2996,-0.2964,-0.2949,-0.2921,-0.29,-0.2863,-0.2854,-0.2834,-0.2816,-0.2802,-0.2792,-0.2795,-0.2793,-0.2794,-0.2763,-0.2769,-0.2767,-0.2782,-0.2782,-0.2781,-0.2766,0,-0.3149,-0.3108,-0.3083,-0.3051,-0.3028,-0.3003,-0.2982,-0.2955,-0.2933,-0.2909,-0.2885,-0.2859,-0.285,-0.2838,-0.2822,-0.2796,-0.2785,-0.2797,-0.2761,-0.276,-0.2769,-0.2764,-0.2771,-0.2758,-0.2763,-0.2763,-0.2763,0,-0.3138,-0.311,-0.3076,-0.3036,-0.3026,-0.3008,-0.2975,-0.2953,-0.292,-0.2905,-0.2882,-0.2862,-0.2835,-0.2832,-0.2793,-0.2802,-0.2785,-0.2769,-0.2768,-0.2764,-0.2761,-0.2759,-0.2754,-0.2751,-0.2759,-0.2759,-0.2759,0,-0.3153,-0.3107,-0.308,-0.3065,-0.3018,-0.3006,-0.2986,-0.2953,-0.2934,-0.2905,-0.2892,-0.2859,-0.2841,-0.2816,-0.2788,-0.2788,-0.2751,-0.2746,-0.2736,-0.2737,-0.273,-0.2731,-0.2721,-0.272,-0.272,-0.272,-0.272,0,-0.3149,-0.3129,-0.3086,-0.3069,-0.3045,-0.3015,-0.2991,-0.2969,-0.2939,-0.2917,-0.2893,-0.2872,-0.2836,-0.281,-0.2788,-0.2758,-0.275,-0.2736,-0.273,-0.2738,-0.274,-0.2727,-0.2726,-0.272,-0.272,-0.272,-0.272,0,-0.3162,-0.3132,-0.3101,-0.3059,-0.3048,-0.3031,-0.2994,-0.2976,-0.2953,-0.2924,-0.2916,-0.2878,-0.2846,-0.2815,-0.2773,-0.2757,-0.2727,-0.2719,-0.2738,-0.2735,-0.2726,-0.2727,-0.2708,-0.2703,-0.2706,-0.2706,-0.2706,0,-0.3161,-0.3145,-0.31,-0.3083,-0.3064,-0.3037,-0.3017,-0.2986,-0.2966,-0.2926,-0.2912,-0.2878,-0.2849,-0.2799,-0.2767,-0.2733,-0.2725,-0.272,-0.2719,-0.2727,-0.2723,-0.2724,-0.2721,-0.2721,-0.2721,-0.2721,-0.2721,0,-0.3163,-0.3148,-0.3121,-0.3088,-0.3065,-0.3037,-0.3008,-0.2996,-0.2959,-0.2937,-0.2904,-0.2881,-0.2836,-0.2802,-0.2764,-0.2742,-0.2725,-0.2721,-0.2717,-0.2725,-0.2735,-0.2728,-0.2739,-0.2722,-0.2722,-0.2722,-0.2722,-0.2722,-0.3168,-0.3151,-0.3117,-0.3086,-0.3061,-0.3034,-0.3015,-0.2988,-0.296,-0.2921,-0.2904,-0.287,-0.2834,-0.2781,-0.2759,-0.2731,-0.2727,-0.2721,-0.2719,-0.2718,-0.2719,-0.274,-0.2724,-0.2724,-0.2724,-0.2724,-0.2724,0,-0.3167,-0.3143,-0.3115,-0.3076,-0.3051,-0.3037,-0.3003,-0.2983,-0.2954,-0.2922,-0.2894,-0.2854,-0.282,-0.2785,-0.2748,-0.2732,-0.2723,-0.2724,-0.2724,-0.2719,-0.2726,-0.2732,-0.2731,-0.2731,-0.2731,-0.2731,-0.2732,-0.2732,-0.3164,-0.3134,-0.3115,-0.3072,-0.3048,-0.3014,-0.2996,-0.297,-0.2945,-0.2902,-0.2873,-0.285,-0.2817,-0.2777,-0.2744,-0.2735,-0.2722,-0.2724,-0.2712,-0.2719,-0.2719,-0.2718,-0.2725,-0.2722,-0.2722,-0.2708,-0.2707,-0.2707]}]]